FW0562 Weather Reports


time (UTC)temp
F
wind
direction
speed
knots
gust
knots
rain 1hr
in
rain 24hr
in
rain mn
in
humidity
%
barometer
mb
20260507140704 60 0 0.9 3.5 0.00 0.00 0.00 56 1015.9
20260507135202 60 90 0.0 0.0 0.00 0.00 0.00 60 1016.0
20260507125135 60 193 0.0 0.0 0.00 0.01 0.00 59 1015.9
20260507122129 60 69 0.9 4.3 0.00 0.01 0.00 58 1015.8
20260507115130 60 355 0.9 4.3 0.00 0.01 0.00 57 1015.7
20260507113629 60 101 0.9 4.3 0.00 0.01 0.00 60 1015.8
20260507112128 60 88 0.9 5.2 0.00 0.01 0.00 57 1015.8
20260507110630 60 53 1.7 7.8 0.00 0.01 0.00 54 1015.8
20260507105130 60 92 1.7 6.1 0.00 0.01 0.00 58 1015.8
20260507102129 58 9 2.6 5.2 0.00 0.01 0.00 64 1015.8
20260507100629 58 95 0.9 6.1 0.00 0.01 0.00 62 1015.8
20260507095129 57 9 1.7 5.2 0.00 0.01 0.00 69 1015.7
20260507093629 56 5 1.7 4.3 0.00 0.01 0.00 68 1015.7
20260507092131 56 95 1.7 5.2 0.00 0.01 0.00 71 1015.7
20260507090628 56 84 0.9 4.3 0.00 0.01 0.00 74 1015.6
20260507085129 55 82 0.9 4.3 0.00 0.01 0.00 74 1015.5
20260507083631 54 355 0.9 6.1 0.00 0.01 0.00 72 1015.4
20260507082125 54 343 0.9 4.3 0.00 0.01 0.00 79 1015.4
20260507080612 53 42 0.9 5.2 0.00 0.01 0.00 80 1015.3
20260507075112 53 61 0.0 1.7 0.00 0.01 0.00 80 1015.2
20260507073604 52 16 0.0 0.0 0.00 0.01 0.00 82 1015.2
20260507072104 51 355 0.9 4.3 0.00 0.01 0.00 82 1015.1
20260507070601 51 350 0.0 0.0 0.00 0.01 0.00 83 1015.1
20260507065102 50 350 0.0 0.0 0.00 0.01 0.00 84 1015.0
20260507063601 50 350 0.0 0.0 0.00 0.02 0.00 87 1015.1
20260507062058 49 350 0.0 0.0 0.00 0.02 0.00 89 1014.8
20260507060550 49 350 0.0 0.0 0.00 0.02 0.00 90 1014.7
20260507055032 48 350 0.0 0.0 0.00 0.02 0.00 91 1014.5
20260507053532 48 350 0.0 0.0 0.00 0.02 0.00 91 1014.4
20260507052009 48 350 0.0 0.0 0.00 0.02 0.00 90 1014.4
20260507050521 48 350 0.0 0.0 0.00 0.02 0.00 91 1014.1
20260507045012 47 350 0.0 0.0 0.00 0.02 0.00 92 1014.1
20260507043504 47 350 0.0 0.0 0.00 0.02 0.00 92 1013.9
20260507042010 47 350 0.0 0.0 0.00 0.02 0.00 92 1013.8
20260507040504 47 350 0.0 0.0 0.00 0.02 0.00 92 1013.7
20260507035006 47 350 0.0 0.0 0.00 0.02 0.00 92 1013.5
20260507033521 48 350 0.0 0.0 0.00 0.02 0.00 92 1013.4
20260507032006 48 350 0.0 0.0 0.00 0.02 0.00 91 1013.4
20260507030507 48 350 0.0 0.0 0.00 0.02 0.00 91 1013.4
20260507025012 48 350 0.0 0.0 0.00 0.03 0.00 91 1013.3
20260507023506 48 350 0.0 0.0 0.00 0.03 0.00 91 1013.3
20260507022005 48 350 0.0 0.0 0.00 0.03 0.00 90 1013.3
20260507013520 48 350 0.0 0.0 0.00 0.03 0.00 89 1012.9
20260507010503 48 350 0.0 0.0 0.00 0.04 0.00 89 1012.9
20260507005001 48 350 0.0 0.0 0.00 0.04 0.00 87 1012.9
20260507003456 48 350 0.0 0.0 0.00 0.04 0.00 87 1012.9
20260506234929 49 350 0.0 0.0 0.00 0.05 0.00 85 1012.7
20260506231926 49 350 0.0 0.0 0.00 0.06 0.00 84 1012.7
20260506230418 49 350 0.0 0.0 0.00 0.06 0.00 84 1012.5
20260506224908 49 350 0.0 0.0 0.00 0.06 0.00 83 1012.3
20260506223407 49 350 0.0 0.0 0.00 0.07 0.00 83 1012.1
20260506221906 49 350 0.0 0.0 0.00 0.08 0.00 83 1012.1
20260506220402 49 350 0.0 0.0 0.00 0.09 0.00 83 1012.0
20260506214903 49 350 0.0 0.0 0.00 0.09 0.09 83 1012.0
20260506213354 49 350 0.0 0.0 0.00 0.09 0.09 84 1012.0
20260506211845 49 350 0.0 0.0 0.00 0.10 0.09 84 1011.9
20260506210339 49 350 0.0 0.0 0.00 0.11 0.09 84 1011.8
20260506204835 50 350 0.0 0.0 0.00 0.11 0.09 84 1011.7
20260506200331 50 53 0.9 5.2 0.00 0.13 0.09 82 1011.5
20260506194821 49 5 0.9 4.3 0.00 0.13 0.09 82 1011.4
20260506193318 49 355 0.0 0.0 0.00 0.13 0.09 81 1011.2
20260506191816 49 355 0.0 0.0 0.00 0.13 0.09 80 1010.9
20260506190304 50 355 0.0 4.3 0.00 0.14 0.09 77 1010.7
20260506184805 51 350 0.0 1.7 0.00 0.14 0.09 75 1010.7
20260506183302 52 350 0.0 3.5 0.00 0.14 0.09 73 1010.6
20260506174754 54 348 1.7 7.0 0.00 0.15 0.09 68 1009.9
20260506173248 55 11 0.9 5.2 0.00 0.15 0.09 68 1009.5
20260506171745 55 0 1.7 7.8 0.00 0.16 0.09 67 1009.4
20260506170245 56 63 0.9 5.2 0.00 0.16 0.09 69 1009.3
20260506164744 56 42 0.9 5.2 0.00 0.17 0.09 70 1009.1
20260506161736 56 348 0.9 4.3 0.00 0.17 0.09 71 1008.9
20260506160237 57 5 0.9 5.2 0.00 0.17 0.09 67 1009.0
20260506154716 57 344 0.9 7.0 0.00 0.17 0.09 65 1008.8
20260506153217 57 350 1.7 7.0 0.00 0.17 0.09 66 1008.9
20260506151712 58 340 2.6 7.0 0.00 0.17 0.09 62 1009.0
20260506150212 59 351 0.9 7.0 0.00 0.17 0.09 65 1008.8
20260506143208 59 5 0.9 6.1 0.00 0.17 0.09 68 1008.7
20260506141706 57 350 0.0 4.3 0.00 0.17 0.09 70 1008.7